Weather History for Keahole Point, HI

Change the Weather History Date:

Saturday, January 25, 2014

  Actual Average Record
Temperature  
Mean Temperature 74 °F -  
Max Temperature 81 °F 79 °F 88 °F (1984)
Min Temperature 66 °F 66 °F 63 °F (1992)
Cooling Degree Days 8    
Growing Degree Days 24 (Base 50)    
Moisture  
Dew Point 59 °F    
Average Humidity 61    
Maximum Humidity 73    
Minimum Humidity 52    
Precipitation  
Precipitation 0.00 in - - ()
Sea Level Pressure  
Sea Level Pressure 29.85 in    
Wind  
Wind Speed 7 mph (South)    
Max Wind Speed 15 mph    
Max Gust Speed -    
Visibility 10 miles    
Events      
Averages and records for this station are not official NWS values.
T = Trace of Precipitation, MM = Missing Value Source: NWS Daily Summary

Daily Weather History Graph

Daily Weather History Graph

Search for Another Location

Airport:

Trip Planner

Search our weather history database for the weather conditions in past years. The results will help you decide how hot, cold, wet, or windy it might be!

Date:

Astronomy

Jan. 25, 2014 Rise Set
Actual Time 7:00 AM HST 6:12 PM HST
Civil Twilight 6:37 AM HST 6:35 PM HST
Nautical Twilight 6:11 AM HST 7:02 PM HST
Astronomical Twilight 5:44 AM HST 7:28 PM HST
Moon 1:47 AM HST (1/25) 1:21 PM HST (1/25)
Length of Visible Light 11h 57m
Length of Day
11h 11m
Waning Crescent, 32% of the Moon is Illuminated
Jan 25
Waning Crescent
Jan 30
New
Feb 6
First Quarter
Feb 14
Full
Feb 22
Last Quarter

Hourly Weather History & Observations

Time (HST) Temp. Heat Index Dew Point Humidity Pressure Visibility Wind Dir Wind Speed Gust Speed Precip Events Conditions
12:53 AM 70.0 °F - 57.9 °F 65% 29.86 in 10.0 mi East 3.5 mph - N/A   Overcast
1:53 AM 71.1 °F - 57.0 °F 61% 29.85 in 10.0 mi East 5.8 mph - N/A   Overcast
2:53 AM 69.1 °F - 57.9 °F 68% 29.83 in 10.0 mi Calm Calm - N/A   Overcast
3:53 AM 68.0 °F - 59.0 °F 73% 29.83 in 10.0 mi ESE 4.6 mph - N/A   Overcast
4:53 AM 68.0 °F - 57.9 °F 70% 29.82 in 9.0 mi ESE 6.9 mph - N/A   Overcast
5:53 AM 66.9 °F - 57.9 °F 73% 29.83 in 9.0 mi SE 5.8 mph - N/A   Partly Cloudy
6:42 AM 66.2 °F - 57.2 °F 73% 29.84 in 9.0 mi SE 4.6 mph - N/A   Overcast
6:53 AM 68.0 °F - 57.0 °F 68% 29.84 in 10.0 mi ESE 5.8 mph - N/A   Mostly Cloudy
7:04 AM 68.0 °F - 57.2 °F 68% 29.84 in 9.0 mi ESE 6.9 mph - N/A   Clear
7:53 AM 69.1 °F - 55.9 °F 63% 29.86 in 10.0 mi SE 6.9 mph - N/A   Clear
8:53 AM 75.0 °F - 57.0 °F 53% 29.88 in 10.0 mi SSE 9.2 mph - N/A   Clear
9:53 AM 75.9 °F - 61.0 °F 60% 29.88 in 10.0 mi South 10.4 mph - N/A   Clear
10:53 AM 79.0 °F - 62.1 °F 56% 29.87 in 10.0 mi SSW 12.7 mph - N/A   Clear
11:53 AM 80.1 °F 81.5 °F 63.0 °F 56% 29.86 in 10.0 mi SW 15.0 mph - N/A   Partly Cloudy
12:53 PM 81.0 °F 81.9 °F 62.1 °F 52% 29.85 in 10.0 mi SW 13.8 mph - N/A   Scattered Clouds
1:53 PM 80.1 °F 81.1 °F 61.0 °F 52% 29.82 in 10.0 mi SW 13.8 mph - N/A   Partly Cloudy
2:53 PM 80.1 °F 81.2 °F 62.1 °F 54% 29.80 in 10.0 mi SSW 12.7 mph - N/A   Scattered Clouds
3:53 PM 79.0 °F - 62.1 °F 56% 29.81 in 10.0 mi SW 11.5 mph - N/A   Scattered Clouds
4:53 PM 78.1 °F - 62.1 °F 58% 29.81 in 10.0 mi SSW 11.5 mph - N/A   Overcast
5:53 PM 77.0 °F - 61.0 °F 58% 29.83 in 10.0 mi SW 8.1 mph - N/A   Overcast
6:53 PM 75.9 °F - 61.0 °F 60% 29.85 in 10.0 mi SW 9.2 mph - N/A   Overcast
7:53 PM 75.9 °F - 60.1 °F 58% 29.87 in 10.0 mi WSW 9.2 mph - N/A   Overcast
8:53 PM 75.9 °F - 60.1 °F 58% 29.88 in 10.0 mi WSW 10.4 mph - N/A   Overcast
9:53 PM 75.0 °F - 59.0 °F 57% 29.90 in 10.0 mi SW 11.5 mph - N/A   Mostly Cloudy
10:53 PM 75.0 °F - 59.0 °F 57% 29.90 in 10.0 mi SW 9.2 mph - N/A   Mostly Cloudy
11:53 PM 75.0 °F - 57.0 °F 53% 29.89 in 10.0 mi SW 8.1 mph - N/A   Overcast